Location: Bushrod
(6.3500°N, 10.7833°W)
Time: 14:40:21
(UTC+00:00)

ARIANE 5 R/B - Pass Details

Date: 17 September 2019
Orbit: 259 x 33627 km, 3.3° (Epoch: 21 October)

Event Time Altitude Azimuth Distance (km) Brightness Sun altitude
Rises 18:53:56 0° 238° (WSW) 2,028 6.3 -3.8°
Reaches altitude 10° 18:55:23 10° 219° (SW) 1,473 5.1 -4.2°
Maximum altitude 18:57:53 25° 159° (SSE) 1,375 4.1 -4.8°
Drops below altitude 10° 19:04:48 10° 106° (ESE) 4,335 6.2 -6.5°
Enters shadow 19:07:08 - 102° (ESE) 5,397 6.7 -7.1°
